Weather History for KAIT - November, 2012

Change the Weather History Date:

Friday, November 9, 2012

  Actual Average Record
Temperature  
Mean Temperature 37 °F -  
Max Temperature 39 °F 39 °F 68 °F (1999)
Min Temperature 35 °F 23 °F 5 °F (1959)
Degree Days  
Heating Degree Days 28    
Moisture  
Dew Point 30 °F    
Average Humidity 73    
Maximum Humidity 81    
Minimum Humidity 70    
Precipitation  
Precipitation 0.00 in - - ()
Sea Level Pressure  
Sea Level Pressure 30.06 in    
Wind  
Wind Speed 10 mph (NE)    
Max Wind Speed 15 mph    
Max Gust Speed 24 mph    
Visibility 10 miles    
Events      
Averages and records for this station are not official NWS values.
T = Trace of Precipitation, MM = Missing Value Source: NWS Daily Summary

Daily Weather History Graph

Daily Weather History Graph

Search for Another Location

Airport or City:

Trip Planner

Search our weather history database for the weather conditions in past years. The results will help you decide how hot, cold, wet, or windy it might be!

Date:

Astronomy

Nov. 09, 2012 Rise Set
Actual Time 7:08 AM CST 4:47 PM CST
Civil Twilight 6:36 AM CST 5:20 PM CST
Nautical Twilight 6:00 AM CST 5:56 PM CST
Astronomical Twilight 5:24 AM CST 6:31 PM CST
Moon 1:52 AM CST (11/9) 2:15 PM CST (11/9)
Length of Visible Light 10h 43m
Length of Day
9h 38m
Waning Crescent, 23% of the Moon is Illuminated
Nov 9
Waning Crescent
Nov 13
New
Nov 20
First Quarter
Nov 28
Full
Dec 6
Last Quarter

Hourly Weather History & Observations

Time (CST) Temp. Windchill Dew Point Humidity Pressure Visibility Wind Dir Wind Speed Gust Speed Precip Events Conditions
12:13 AM 39.2 °F 33.6 °F 33.8 °F 81% 30.05 in 10.0 mi North 8.1 mph - N/A   Overcast
12:32 AM 39.2 °F 33.0 °F 33.8 °F 81% 30.05 in 10.0 mi NNE 9.2 mph - N/A   Overcast
12:52 AM 39.2 °F 34.2 °F 33.8 °F 81% 30.06 in 10.0 mi NNE 6.9 mph - N/A   Overcast
1:13 AM 39.2 °F 32.5 °F 32.0 °F 75% 30.05 in 10.0 mi North 10.4 mph - N/A   Overcast
1:32 AM 39.2 °F 33.6 °F 32.0 °F 75% 30.05 in 10.0 mi North 8.1 mph - N/A   Mostly Cloudy
1:52 AM 39.2 °F 33.0 °F 32.0 °F 75% 30.06 in 10.0 mi North 9.2 mph - N/A   Mostly Cloudy
2:13 AM 39.2 °F 32.5 °F 32.0 °F 75% 30.07 in 10.0 mi North 10.4 mph - N/A   Overcast
2:32 AM 39.2 °F 33.6 °F 30.2 °F 70% 30.07 in 10.0 mi North 8.1 mph - N/A   Overcast
2:52 AM 39.2 °F 34.2 °F 30.2 °F 70% 30.07 in 10.0 mi NNE 6.9 mph - N/A   Overcast
3:13 AM 39.2 °F 33.6 °F 30.2 °F 70% 30.07 in 10.0 mi North 8.1 mph - N/A   Overcast
3:32 AM 37.4 °F 31.4 °F 30.2 °F 75% 30.08 in 10.0 mi NNE 8.1 mph - N/A   Overcast
3:52 AM 37.4 °F 30.3 °F 30.2 °F 75% 30.08 in 10.0 mi NNE 10.4 mph - N/A   Overcast
4:13 AM 37.4 °F 29.8 °F 30.2 °F 75% 30.08 in 10.0 mi NNE 11.5 mph - N/A   Overcast
4:32 AM 37.4 °F 31.4 °F 30.2 °F 75% 30.08 in 10.0 mi North 8.1 mph - N/A   Overcast
4:52 AM 37.4 °F 31.4 °F 30.2 °F 75% 30.08 in 10.0 mi NNE 8.1 mph - N/A   Overcast
5:13 AM 37.4 °F 30.3 °F 28.4 °F 70% 30.08 in 10.0 mi NNE 10.4 mph - N/A   Overcast
5:52 AM 37.4 °F 32.1 °F 28.4 °F 70% 30.09 in 10.0 mi NNE 6.9 mph - N/A   Overcast
6:13 AM 37.4 °F 30.3 °F 28.4 °F 70% 30.08 in 10.0 mi NE 10.4 mph - N/A   Overcast
6:32 AM 37.4 °F 30.3 °F 28.4 °F 70% 30.09 in 10.0 mi NE 10.4 mph - N/A   Overcast
6:52 AM 35.6 °F 28.6 °F 28.4 °F 75% 30.09 in 10.0 mi NNE 9.2 mph - N/A   Overcast
7:13 AM 35.6 °F 28.0 °F 28.4 °F 75% 30.09 in 10.0 mi NE 10.4 mph - N/A   Overcast
7:32 AM 35.6 °F 30.7 °F 28.4 °F 75% 30.10 in 10.0 mi NNE 5.8 mph - N/A   Overcast
7:52 AM 35.6 °F 28.0 °F 28.4 °F 75% 30.11 in 10.0 mi NNE 10.4 mph - N/A   Overcast
8:13 AM 35.6 °F 29.2 °F 28.4 °F 75% 30.11 in 10.0 mi ENE 8.1 mph - N/A   Overcast
8:32 AM 35.6 °F 29.2 °F 28.4 °F 75% 30.11 in 10.0 mi NE 8.1 mph 16.1 mph N/A   Overcast
8:52 AM 35.6 °F 28.6 °F 28.4 °F 75% 30.10 in 10.0 mi NE 9.2 mph - N/A   Overcast
9:13 AM 35.6 °F 29.9 °F 28.4 °F 75% 30.11 in 10.0 mi NE 6.9 mph - N/A   Overcast
9:33 AM 35.6 °F 29.9 °F 28.4 °F 75% 30.11 in 10.0 mi NE 6.9 mph - N/A   Overcast
9:52 AM 37.4 °F 31.4 °F 28.4 °F 70% 30.10 in 10.0 mi NE 8.1 mph - N/A   Overcast
10:13 AM 37.4 °F 30.8 °F 28.4 °F 70% 30.09 in 10.0 mi ENE 9.2 mph - N/A   Overcast
10:32 AM 37.4 °F 31.4 °F 28.4 °F 70% 30.10 in 10.0 mi ENE 8.1 mph - N/A   Overcast
10:52 AM 37.4 °F 30.8 °F 30.2 °F 75% 30.10 in 10.0 mi NE 9.2 mph - N/A   Overcast
11:13 AM 37.4 °F 30.8 °F 30.2 °F 75% 30.09 in 10.0 mi NE 9.2 mph 16.1 mph N/A   Overcast
11:32 AM 39.2 °F 33.0 °F 30.2 °F 70% 30.09 in 10.0 mi ENE 9.2 mph - N/A   Overcast
11:52 AM 39.2 °F 33.0 °F 30.2 °F 70% 30.08 in 10.0 mi NE 9.2 mph 16.1 mph N/A   Overcast
12:13 PM 39.2 °F 31.6 °F 30.2 °F 70% 30.07 in 10.0 mi NE 12.7 mph 18.4 mph N/A   Overcast
12:32 PM 39.2 °F 32.0 °F 30.2 °F 70% 30.06 in 10.0 mi NE 11.5 mph 19.6 mph N/A   Overcast
12:52 PM 39.2 °F 32.0 °F 30.2 °F 70% 30.06 in 10.0 mi ENE 11.5 mph 16.1 mph N/A   Overcast
1:13 PM 39.2 °F 31.2 °F 30.2 °F 70% 30.05 in 10.0 mi ENE 13.8 mph 20.7 mph N/A   Overcast
1:32 PM 39.2 °F 32.5 °F 30.2 °F 70% 30.05 in 10.0 mi ENE 10.4 mph 18.4 mph N/A   Overcast
1:52 PM 39.2 °F 32.0 °F 30.2 °F 70% 30.05 in 10.0 mi ENE 11.5 mph 17.3 mph N/A   Overcast
2:13 PM 39.2 °F 32.5 °F 30.2 °F 70% 30.04 in 10.0 mi ENE 10.4 mph - N/A   Overcast
2:32 PM 39.2 °F 32.5 °F 30.2 °F 70% 30.03 in 10.0 mi ENE 10.4 mph 19.6 mph N/A   Overcast
2:52 PM 39.2 °F 31.2 °F 30.2 °F 70% 30.03 in 10.0 mi ENE 13.8 mph 19.6 mph N/A   Overcast
3:12 PM 39.2 °F 32.0 °F 30.2 °F 70% 30.04 in 10.0 mi ENE 11.5 mph 19.6 mph N/A   Overcast
3:32 PM 39.2 °F 31.6 °F 30.2 °F 70% 30.04 in 10.0 mi ENE 12.7 mph 21.9 mph N/A   Overcast
3:53 PM 39.2 °F 32.5 °F 30.2 °F 70% 30.04 in 10.0 mi ENE 10.4 mph 20.7 mph N/A   Overcast
4:12 PM 37.4 °F 29.8 °F 30.2 °F 75% 30.03 in 10.0 mi ENE 11.5 mph 19.6 mph N/A   Overcast
4:32 PM 37.4 °F 29.8 °F 30.2 °F 75% 30.03 in 10.0 mi ENE 11.5 mph 21.9 mph N/A   Overcast
4:53 PM 37.4 °F 29.3 °F 30.2 °F 75% 30.03 in 10.0 mi ENE 12.7 mph 18.4 mph N/A   Overcast
5:12 PM 37.4 °F 28.9 °F 30.2 °F 75% 30.03 in 10.0 mi ENE 13.8 mph 19.6 mph N/A   Overcast
5:32 PM 37.4 °F 28.5 °F 30.2 °F 75% 30.03 in 10.0 mi ENE 15.0 mph 23.0 mph N/A   Overcast
5:53 PM 37.4 °F 29.3 °F 30.2 °F 75% 30.03 in 10.0 mi ENE 12.7 mph 24.2 mph N/A   Overcast
6:12 PM 37.4 °F 28.5 °F 30.2 °F 75% 30.03 in 10.0 mi ENE 15.0 mph 21.9 mph N/A   Overcast
6:32 PM 37.4 °F 29.8 °F 30.2 °F 75% 30.04 in 10.0 mi ENE 11.5 mph 20.7 mph N/A   Overcast
6:53 PM 37.4 °F 30.3 °F 30.2 °F 75% 30.04 in 10.0 mi ENE 10.4 mph 16.1 mph N/A   Overcast
7:12 PM 37.4 °F 30.3 °F 30.2 °F 75% 30.04 in 10.0 mi ENE 10.4 mph 17.3 mph N/A   Overcast
7:33 PM 37.4 °F 29.3 °F 30.2 °F 75% 30.04 in 10.0 mi ENE 12.7 mph 18.4 mph N/A   Overcast
7:52 PM 37.4 °F 29.8 °F 30.2 °F 75% 30.04 in 10.0 mi ENE 11.5 mph 21.9 mph N/A   Overcast
8:12 PM 37.4 °F 29.8 °F 30.2 °F 75% 30.04 in 10.0 mi ENE 11.5 mph 20.7 mph N/A   Overcast
8:33 PM 37.4 °F 29.3 °F 28.4 °F 70% 30.03 in 10.0 mi ENE 12.7 mph 19.6 mph N/A   Overcast
9:12 PM 37.4 °F 29.8 °F 28.4 °F 70% 30.03 in 10.0 mi ENE 11.5 mph 17.3 mph N/A   Overcast
9:33 PM 37.4 °F 30.8 °F 30.2 °F 75% 30.03 in 10.0 mi ENE 9.2 mph - N/A   Overcast
9:53 PM 37.4 °F 29.8 °F 30.2 °F 75% 30.03 in 10.0 mi ENE 11.5 mph 18.4 mph N/A   Overcast
10:12 PM 37.4 °F 30.3 °F 30.2 °F 75% 30.03 in 10.0 mi East 10.4 mph 17.3 mph N/A   Overcast
10:33 PM 37.4 °F 30.3 °F 30.2 °F 75% 30.02 in 10.0 mi East 10.4 mph 21.9 mph N/A   Overcast
10:53 PM 37.4 °F 31.4 °F 30.2 °F 75% 30.02 in 10.0 mi East 8.1 mph 17.3 mph N/A   Overcast
11:12 PM 37.4 °F 30.3 °F 30.2 °F 75% 30.01 in 10.0 mi East 10.4 mph 18.4 mph N/A   Overcast
11:33 PM 37.4 °F 30.3 °F 30.2 °F 75% 30.00 in 10.0 mi East 10.4 mph 17.3 mph N/A   Overcast
11:53 PM 37.4 °F 30.3 °F 30.2 °F 75% 29.99 in 10.0 mi East 10.4 mph 18.4 mph N/A   Overcast